Wind_Speed
109 106 103 100 95 92 90 90 88 85 85 86 85 83 80 79 79 78 78 79 78 76 73 72 70 70 73 72 68 64 59 55 54 54 54 54 52 52 51 51 50 48 47 44 43 42 40 39 37 35 34 33 33 32 32 33 34 36 38 40 42 42 44 46 47 47 48 48 48 48 49 49 49 49 48 47 46 45 45 44 44 44 44 44 45 48
112 108 105 101 98 96 95 94 92 89 89 89 87 85 82 80 79 79 79 79 80 77 74 73 72 70 72 73 71 67 61 58 58 58 58 57 55 53 54 54 54 51 50 47 46 45 43 41 40 38 37 36 36 35 34 35 35 36 37 38 38 38 41 43 44 46 47 47 47 49 50 50 50 50 50 49 48 47 46 45 45 45 46 47 49 50
115 110 106 103 102 100 98 97 95 92 91 89 88 86 83 80 79 79 80 81 81 79 76 75 74 71 72 74 72 69 64 63 63 63 62 60 57 56 57 58 56 55 54 52 50 48 46 44 43 41 41 40 39 38 38 38 38 38 38 39 38 38 39 40 41 42 43 43 45 48 50 51 52 52 51 51 50 49 48 47 47 48 49 50 52 53
115 110 106 105 104 102 101 100 98 95 93 90 89 87 84 82 81 81 82 83 83 81 78 77 75 72 72 73 73 71 68 68 67 66 64 62 60 59 60 59 58 58 58 56 54 52 50 48 46 45 44 43 43 42 42 41 40 40 40 40 40 40 41 41 41 41 41 41 43 45 47 48 50 50 51 51 51 50 50 50 50 51 52 54 55 55
116 112 109 107 106 105 104 103 101 98 95 92 90 88 86 84 83 84 84 85 85 83 81 80 77 74 72 73 73 73 71 69 68 67 65 65 64 63 62 61 61 61 60 58 57 56 53 51 50 49 48 47 46 46 45 44 43 44 44 43 43 43 43 43 43 42 42 43 44 44 45 46 47 47 48 49 48 48 49 51 52 53 54 55 56 57
118 116 113 110 108 107 106 105 102 100 97 94 92 90 89 88 87 86 86 86 86 85 83 83 81 75 73 74 73 75 72 68 68 68 67 67 66 65 64 64 64 63 61 60 59 58 56 54 53 52 51 51 50 50 48 47 47 47 47 46 45 45 46 46 45 45 45 46 46 46 47 47 47 48 49 48 47 47 48 50 51 53 55 56 57 58
121 120 118 113 110 109 107 106 104 102 99 96 92 92 92 91 90 89 88 88 88 87 85 86 84 77 74 74 73 75 74 69 69 68 68 69 68 67 66 66 66 65 64 63 61 60 58 56 55 55 54 54 54 54 52 51 50 49 49 48 47 47 47 48 47 47 47 48 49 49 49 50 50 51 51 50 49 49 49 50 51 52 54 55 57 58
122 123 121 115 112 110 109 107 105 103 101 98 94 94 94 93 92 91 91 91 91 90 89 87 86 79 74 73 74 75 74 71 69 69 69 70 70 69 68 68 68 68 68 66 63 62 60 59 58 57 57 57 57 57 55 54 53 52 51 50 49 49 50 50 49 49 49 50 50 51 52 53 54 54 53 52 51 52 52 52 53 53 54 54 55 57
122 123 122 118 115 113 111 108 106 105 103 100 98 97 96 95 95 95 95 95 95 94 91 86 85 82 74 72 74 76 75 72 70 70 70 71 72 71 70 70 70 70 70 68 66 65 63 62 60 60 60 60 59 59 58 57 56 55 55 54 53 53 53 53 52 51 51 52 52 53 54 56 57 57 56 54 54 55 55 55 56 55 55 55 56 57
125 125 125 124 120 117 114 112 110 108 107 104 102 101 99 98 98 98 99 98 98 97 91 84 84 84 78 73 75 78 76 74 72 72 72 72 73 73 73 72 72 72 71 70 69 68 67 65 64 63 62 62 62 61 60 60 60 59 59 58 58 58 57 56 56 55 54 54 54 55 56 58 58 59 58 57 57 57 57 58 58 58 58 58 58 59
129 128 128 127 124 120 117 115 112 111 109 107 105 103 102 101 101 101 102 101 103 99 89 83 85 88 83 76 75 76 76 76 75 75 75 75 75 75 75 74 74 74 73 72 71 71 70 69 68 66 65 65 65 64 64 64 63 63 62 62 62 62 62 61 60 59 58 57 56 57 58 59 60 60 60 59 60 60 60 60 60 60 60 60 61 61
131 129 127 126 125 123 119 116 114 113 111 109 108 106 104 104 104 105 105 105 106 99 87 84 88 92 87 77 73 74 76 78 79 79 79 78 78 78 77 76 77 76 75 74 74 73 73 72 71 70 68 68 68 68 68 67 66 66 66 66 65 66 66 64 64 63 62 61 60 59 60 61 62 62 61 62 63 63 63 62 62 62 62 63 63 64
131 129 126 125 127 126 121 118 117 116 114 112 109 107 106 106 107 107 107 106 106 98 88 87 92 96 90 78 74 75 77 81 83 83 82 81 81 82 81 80 80 79 78 78 78 77 76 76 75 72 71 71 72 71 71 70 70 69 69 69 69 69 69 68 67 66 65 64 63 63 63 63 63 63 63 64 65 65 65 65 65 64 65 65 65 65
129 128 127 126 127 126 122 119 119 117 116 113 110 108 108 108 109 110 109 109 107 100 94 93 98 101 91 79 75 76 79 83 85 85 85 84 85 86 86 85 84 83 82 82 82 81 80 79 77 76 75 76 75 75 74 74 73 73 72 72 72 73 72 71 70 69 69 68 68 67 66 65 65 65 65 66 66 67 68 67 67 67 67 67 66 66
131 130 128 126 126 126 123 121 121 121 119 117 115 114 113 112 112 113 113 112 111 106 100 99 104 103 91 80 78 80 82 84 86 87 87 87 88 89 90 89 88 87 87 86 85 84 83 82 81 80 79 79 78 78 77 77 77 76 76 76 75 76 76 74 73 73 72 72 71 70 69 69 68 67 67 67 68 70 70 70 69 69 69 69 68 69
132 131 128 126 127 127 125 124 125 126 125 122 121 120 117 114 114 116 116 115 114 111 106 104 106 102 90 83 82 83 83 83 86 89 89 89 90 91 92 92 92 91 90 88 87 87 86 86 85 83 83 82 81 81 81 80 80 80 79 79 79 79 79 78 76 76 75 74 74 73 73 72 71 70 69 69 70 71 72 72 71 71 72 71 71 71
133 131 128 127 128 128 127 127 128 129 129 127 126 123 120 118 118 119 120 119 118 116 111 108 106 101 93 87 84 84 84 84 87 90 91 92 92 93 94 95 96 95 92 91 90 90 90 89 88 87 86 85 85 84 84 84 84 83 82 82 82 82 82 81 80 78 77 77 76 76 76 75 75 74 73 72 72 73 73 73 74 74 75 74 74 74
135 133 131 130 130 130 130 130 130 132 133 131 129 126 124 124 123 123 123 122 122 119 115 110 107 103 98 90 86 87 88 88 90 91 92 94 95 95 96 97 99 98 96 95 94 93 93 92 92 90 90 89 88 88 88 87 86 85 84 84 84 85 84 84 82 81 80 80 79 79 78 78 77 77 76 75 75 75 74 74 75 76 77 77 77 76
137 136 134 132 133 133 133 133 132 133 135 134 132 129 129 129 127 127 126 125 123 122 118 114 110 107 102 93 89 93 94 93 94 94 94 96 98 98 98 98 99 100 100 99 98 97 96 96 95 94 93 92 92 91 90 90 89 88 87 87 87 87 87 86 85 84 83 83 82 82 81 80 80 79 79 79 78 78 77 77 78 78 78 79 79 78
138 138 136 135 135 137 137 136 134 134 135 135 134 133 133 132 130 129 129 128 126 125 123 119 115 111 104 96 95 99 99 98 98 97 97 99 99 99 99 100 100 100 101 101 101 100 99 98 97 96 95 95 94 93 93 93 92 91 91 90 90 89 89 89 88 87 87 86 85 85 84 84 84 83 82 82 82 81 81 81 80 80 80 80 80 80
139 139 138 137 138 139 139 137 135 135 136 136 135 135 134 134 134 133 133 132 131 129 127 124 119 112 106 102 102 103 103 102 102 100 100 101 101 100 100 101 103 103 103 104 103 103 102 100 99 98 97 97 96 96 95 96 95 94 93 93 92 92 91 91 91 91 90 89 88 88 88 87 87 86 86 86 86 85 84 84 84 83 83 82 82 82
138 139 140 139 139 140 140 139 138 138 138 138 137 135 135 136 137 137 136 135 134 132 130 128 123 115 108 107 107 107 107 106 105 104 103 104 104 103 103 104 106 106 107 107 106 105 104 103 102 101 100 99 99 99 99 99 98 97 96 95 95 94 94 94 94 93 93 92 92 91 91 91 90 90 90 89 89 88 88 88 87 86 85 84 84 83
137 139 140 140 140 140 140 140 140 140 140 141 140 138 136 137 138 138 137 137 137 135 133 131 127 119 113 112 111 110 111 111 109 108 107 107 107 107 107 108 108 108 108 108 108 107 107 106 106 105 103 102 102 102 102 101 100 99 99 98 97 97 97 97 97 96 96 95 95 95 94 93 93 93 93 92 92 92 92 92 91 90 89 87 87 86
137 138 140 141 141 141 141 142 142 143 142 142 142 140 138 137 137 138 138 139 140 140 138 136 132 122 117 118 116 114 115 114 112 112 111 111 111 110 110 110 110 109 108 108 108 108 109 109 109 109 108 107 106 105 104 103 102 102 101 101 100 100 100 100 99 99 99 98 98 97 97 97 97 96 96 96 96 96 96 96 96 94 93 92 91 90
137 138 139 141 142 143 144 144 144 144 143 142 142 141 140 139 139 138 140 142 143 143 142 141 136 127 122 123 121 117 117 117 115 114 114 113 114 113 113 112 112 110 109 109 109 110 111 112 112 111 110 110 109 108 107 106 105 104 104 104 103 103 103 103 102 102 101 101 100 100 100 100 100 100 100 100 100 100 100 100 99 98 97 96 95 93
138 139 140 141 143 144 144 144 144 144 144 143 142 142 141 141 141 141 142 143 144 145 145 144 140 133 129 128 123 118 118 119 119 118 117 116 116 116 115 114 113 112 111 110 111 112 113 114 115 114 113 112 112 111 110 109 108 107 107 107 107 106 106 105 105 104 104 104 104 103 103 104 104 103 104 104 104 104 104 103 102 101 100 99 98 97
138 140 141 142 143 143 143 143 144 145 146 145 144 144 144 144 144 145 146 146 146 147 146 145 144 139 133 131 126 121 120 122 122 121 120 119 118 117 116 116 115 114 113 113 113 114 115 116 117 117 115 114 114 114 113 112 112 112 111 111 111 110 109 108 107 107 107 107 106 107 107 107 107 107 107 107 107 107 106 105 104 103 102 101 100 98
136 139 140 142 142 142 142 142 144 146 148 148 147 146 146 146 146 146 147 147 147 148 147 146 145 142 136 132 130 127 126 126 125 124 122 120 119 119 118 118 118 117 117 117 117 118 119 119 119 118 117 117 117 116 116 115 115 115 115 115 114 114 113 111 110 109 109 109 108 109 109 109 109 109 108 108 108 107 106 105 105 104 103 102 100 99
134 135 137 139 141 141 141 142 144 146 148 149 148 148 147 147 147 147 147 148 148 148 148 146 145 142 138 133 131 131 131 130 129 128 126 124 122 122 121 121 122 122 122 122 123 123 123 123 121 120 120 120 120 120 119 119 118 118 117 117 117 117 116 115 114 112 111 111 111 111 111 110 110 109 109 108 107 106 105 104 103 102 101 100 100 99
130 132 133 136 138 139 140 141 143 145 147 148 148 148 148 149 149 149 148 148 148 148 148 146 144 143 140 135 131 129 130 132 131 131 130 130 128 127 126 125 125 125 126 126 127 126 126 125 124 124 123 123 123 123 123 122 122 121 120 120 119 118 118 117 117 116 115 114 113 113 111 110 109 109 108 107 105 104 103 102 101 99 99 98 98 98
128 129 130 133 136 137 138 139 141 143 145 147 148 148 149 150 150 149 147 146 146 146 146 146 146 145 143 139 134 129 128 130 131 131 131 133 134 133 131 129 128 128 129 130 129 128 127 127 127 127 126 126 125 125 125 125 124 123 123 122 121 120 119 118 117 117 116 116 115 113 112 110 109 108 106 105 103 102 101 100 98 98 97 98 98 98
128 128 128 131 133 134 134 136 138 141 144 146 147 147 148 148 148 147 146 145 145 146 147 147 147 147 145 142 139 134 130 128 129 131 131 132 133 133 133 132 132 133 133 133 132 131 130 129 129 129 129 128 127 127 127 127 126 125 124 124 123 122 121 119 118 117 116 115 114 113 112 110 108 106 104 103 102 100 99 97 97 96 96 96 96 96
127 127 127 129 131 131 131 133 136 141 144 145 144 143 143 144 145 146 147 147 148 149 149 149 148 147 145 143 142 139 134 131 129 131 132 131 130 131 132 132 132 134 135 135 135 134 133 132 132 132 131 130 129 129 128 128 127 127 126 126 125 124 122 121 119 116 114 112 111 109 107 106 104 102 101 100 98 96 95 94 94 94 95 95 95 95
124 125 126 128 130 129 128 131 136 140 142 141 139 138 139 142 144 146 147 147 148 149 149 149 148 147 145 144 143 142 139 135 132 131 133 134 132 130 131 133 134 135 136 136 135 135 134 133 132 132 132 132 131 130 129 128 127 126 125 125 124 123 122 120 118 115 112 110 107 105 102 100 98 97 96 96 95 93 92 91 92 93 94 94 94 94
120 122 124 127 128 127 127 131 137 139 137 135 133 135 138 142 144 145 146 145 145 147 148 149 149 148 148 146 145 144 141 139 136 134 135 138 137 135 134 136 137 138 138 136 135 133 133 131 130 129 130 132 133 133 132 131 129 126 124 123 122 121 120 119 117 115 114 111 108 105 102 99 96 94 92 91 91 90 90 90 91 92 93 93 92 92
116 119 122 125 127 127 127 131 135 135 133 132 131 133 136 138 140 143 144 144 144 146 149 150 150 150 149 148 146 145 143 142 140 138 136 137 139 140 140 139 139 139 139 137 135 134 133 132 130 127 126 128 131 133 135 135 134 132 129 127 124 123 122 121 119 117 116 114 111 108 106 103 98 93 90 88 86 86 86 88 90 92 94 95 94 94
111 115 119 122 125 126 127 130 133 133 132 130 130 130 131 134 137 141 144 145 145 146 149 150 150 149 147 146 146 145 145 146 145 142 138 137 139 141 142 141 141 141 141 140 139 137 137 135 134 131 128 126 127 129 131 133 135 135 134 132 130 128 126 124 123 121 120 118 116 114 112 108 102 95 90 87 85 85 85 86 89 91 94 95 97 98
107 111 115 119 122 125 127 129 132 133 131 128 127 127 130 133 136 140 144 145 144 144 145 147 147 147 146 146 146 146 147 149 147 143 139 139 140 141 142 143 143 142 143 143 142 141 139 138 136 135 132 129 128 129 130 131 132 133 134 133 133 131 129 127 125 124 123 122 121 120 117 112 106 100 93 89 87 86 86 86 87 90 92 94 96 98
103 107 111 116 119 123 126 129 130 131 129 126 124 127 131 134 137 141 145 144 140 138 140 143 145 146 146 146 147 147 149 149 146 143 140 141 142 143 143 144 144 143 143 143 142 142 141 140 139 137 136 135 134 133 133 133 133 133 133 134 134 133 131 130 129 127 126 124 123 121 119 115 111 106 101 95 91 90 89 88 87 89 91 93 94 96
98 103 108 112 115 118 122 126 128 128 126 124 124 127 131 134 138 142 144 141 136 133 135 139 143 144 145 146 146 147 147 147 145 143 142 143 143 142 143 143 143 143 143 143 142 142 141 141 140 139 139 139 138 138 137 136 135 134 134 134 135 135 134 133 133 132 130 126 123 121 119 117 114 110 107 102 96 94 93 92 90 90 92 94 94 95
95 99 104 108 111 114 118 122 125 125 123 121 122 126 131 135 138 141 141 138 134 132 134 137 140 142 142 143 143 143 144 144 143 142 142 142 141 141 141 142 142 142 143 143 143 143 142 142 141 141 141 141 142 141 141 139 138 136 135 135 136 136 136 136 136 135 132 129 126 123 121 119 116 113 111 107 102 98 95 94 93 93 94 95 96 96
93 96 99 103 106 110 114 118 121 121 119 118 121 124 129 133 136 138 138 137 134 133 133 135 137 139 139 139 139 140 140 140 140 140 139 139 138 138 138 139 139 140 141 142 142 142 143 143 143 143 143 143 143 143 142 141 140 138 137 136 136 137 137 137 137 136 134 131 127 125 123 122 120 118 116 112 108 103 100 98 96 95 95 96 99 100
92 94 96 97 100 105 110 114 117 115 113 114 119 123 127 131 134 135 135 134 133 132 132 132 134 136 136 137 137 138 138 138 137 137 137 136 136 135 135 136 136 137 138 139 139 140 140 140 141 142 143 143 143 143 142 141 140 139 138 137 136 136 136 137 136 135 133 132 129 127 125 125 124 123 121 119 116 113 110 108 105 103 103 104 105 106
90 92 94 94 97 101 105 108 109 109 109 111 116 120 123 126 129 131 131 131 131 131 131 131 132 133 134 135 136 136 136 137 137 136 136 136 135 134 134 134 134 135 135 135 136 136 137 137 138 139 140 141 142 142 141 140 139 139 138 137 136 135 135 135 135 133 131 130 129 128 126 126 125 124 123 122 121 120 118 117 116 115 115 115 115 114
86 88 92 94 96 98 99 100 100 102 104 107 110 114 118 121 123 125 126 127 127 127 128 130 131 132 134 134 135 135 136 136 136 136 136 135 135 134 133 133 133 133 133 133 133 134 134 134 135 136 137 138 139 140 140 139 138 137 137 136 136 135 134 133 133 132 130 128 127 126 125 125 125 124 123 122 121 120 120 120 119 118 118 118 118 117
83 86 89 91 93 95 95 94 93 95 98 101 104 108 112 115 117 119 120 121 120 121 123 126 129 131 132 133 133 134 135 134 134 134 134 134 134 133 132 131 131 131 131 131 132 132 132 133 134 134 135 136 137 137 137 137 136 135 134 134 134 134 132 131 130 130 129 127 126 125 124 124 123 123 122 122 120 119 119 119 118 116 115 115 116 116
81 83 86 87 89 90 89 88 90 93 95 98 100 102 105 108 111 113 114 114 114 115 117 121 124 127 128 129 130 130 130 130 130 130 130 131 131 131 131 130 129 129 129 129 130 131 132 133 133 133 133 134 134 135 135 135 134 133 132 131 131 131 131 129 128 128 128 127 127 126 125 124 122 122 121 120 120 118 117 117 116 114 113 112 113 114
81 83 84 85 85 85 84 84 86 90 92 94 96 98 101 104 106 106 107 108 109 111 113 116 118 119 121 122 123 123 123 123 123 124 125 125 126 127 127 127 126 126 126 126 126 128 129 130 131 130 130 131 131 131 132 132 132 131 130 129 129 128 128 128 127 126 126 127 127 126 125 123 122 121 120 119 118 117 115 114 113 112 111 110 110 111
82 84 84 84 84 84 84 84 85 87 88 90 93 95 97 100 100 101 102 104 105 106 108 109 110 111 111 112 113 114 115 115 116 116 117 118 119 120 120 120 120 121 121 122 122 123 124 125 126 126 126 126 126 126 127 127 128 128 127 127 126 126 126 125 125 125 125 125 125 125 124 123 121 120 119 118 116 115 113 112 111 110 109 109 109 109
83 84 85 86 87 87 87 87 87 88 88 89 92 94 95 96 96 96 97 99 100 100 100 100 102 103 104 105 105 105 106 107 107 108 108 109 111 112 112 112 113 114 116 117 117 118 119 119 120 120 120 120 120 120 121 121 122 122 123 123 123 123 122 122 122 123 123 123 123 122 122 121 120 119 118 117 115 113 111 109 108 108 107 106 106 106
86 86 88 90 90 90 90 90 90 90 90 91 93 94 94 93 93 93 93 95 95 95 95 95 96 98 98 99 98 98 98 99 100 100 100 101 103 104 105 105 106 107 109 111 112 113 114 114 115 115 115 115 116 115 115 116 116 116 117 117 118 119 119 119 119 119 120 120 119 119 118 117 117 117 116 115 113 111 109 107 105 104 104 103 102 101
Wind_Direction
233 234 234 236 236 237 237 238 237 235 234 235 235 235 235 236 237 238 238 239 239 238 236 236 236 238 243 245 243 243 242 243 244 244 244 245 247 249 251 252 251 251 252 253 253 253 253 254 254 254 255 255 256 257 257 258 258 258 258 259 260 262 264 265 267 268 269 270 271 272 274 275 276 277 279 280 281 282 282 283 283 282 280 277 278 281
234 234 234 235 236 236 236 237 237 235 235 235 235 236 236 236 237 238 239 240 240 239 238 237 236 237 242 245 244 243 242 243 244 244 244 245 246 249 251 252 252 253 253 253 253 253 254 255 256 257 256 257 257 258 258 258 259 259 260 261 263 265 266 268 268 269 269 270 272 273 274 276 277 278 278 279 280 280 280 281 281 280 278 277 278 281
235 234 234 235 235 236 237 237 237 236 236 236 236 236 237 237 237 238 240 240 240 240 238 238 237 236 240 244 245 244 242 242 243 244 245 246 247 248 251 253 254 255 255 254 254 254 255 256 257 258 259 259 259 259 258 259 261 262 263 264 264 265 266 268 270 271 272 273 274 274 275 276 277 278 278 279 278 278 279 278 278 277 276 276 278 281
236 235 235 235 236 236 237 237 237 237 237 237 237 238 238 238 238 238 239 240 240 240 238 238 237 236 239 243 245 244 242 241 242 244 246 247 248 248 250 253 255 255 255 256 256 256 256 257 258 258 259 259 260 260 260 261 263 265 266 268 268 268 269 270 272 274 275 276 275 276 277 277 277 279 279 279 278 278 278 277 276 276 276 277 278 280
238 236 235 235 235 236 237 237 237 237 237 237 237 238 238 238 238 238 238 240 240 240 238 238 237 235 237 241 244 245 243 242 244 244 246 248 248 249 250 252 254 255 256 257 257 257 258 258 258 259 259 259 260 261 262 263 265 266 267 269 271 272 273 274 275 276 277 277 277 278 279 279 280 281 281 281 281 282 280 278 276 276 276 277 278 280
238 238 236 235 235 236 237 237 238 237 237 237 237 238 238 238 238 238 238 239 240 240 239 238 236 234 236 239 242 245 244 243 244 245 246 248 249 250 251 251 252 254 255 256 257 257 258 258 259 259 260 260 261 262 263 264 265 266 268 270 272 275 276 277 278 278 279 279 280 280 280 281 281 281 281 282 284 284 283 281 279 277 277 278 279 280
237 238 238 236 235 236 237 237 238 238 238 237 237 238 239 238 238 238 238 238 239 239 239 238 236 233 234 237 240 244 245 243 244 245 245 247 248 249 250 251 253 254 254 255 256 257 258 258 259 260 260 261 262 263 264 264 265 267 269 271 273 275 276 277 278 279 281 281 282 282 283 283 282 282 283 284 286 285 284 283 282 281 280 280 280 280
237 239 239 238 236 236 237 237 238 239 239 238 238 238 239 239 239 239 239 239 239 238 238 238 237 233 232 236 239 242 245 244 244 245 245 246 247 248 249 250 252 253 254 255 255 256 257 258 258 259 261 262 262 263 264 265 267 268 270 271 273 274 275 276 278 279 280 281 282 283 284 284 284 284 285 287 287 286 285 284 284 283 283 283 283 282
236 238 240 240 238 237 237 237 238 239 240 239 238 238 239 239 239 239 239 239 239 238 237 238 239 236 231 234 239 241 242 244 244 244 244 245 246 246 247 248 250 252 253 255 256 256 256 256 257 258 259 261 262 263 265 266 268 269 270 272 273 273 274 276 277 278 280 281 282 283 284 284 284 285 287 288 288 287 286 285 285 285 285 285 285 285
234 236 238 239 238 238 237 237 237 238 239 239 239 238 238 238 239 239 240 240 240 239 237 237 240 238 232 230 237 241 241 242 243 243 244 244 245 246 246 247 249 251 252 253 255 256 256 256 256 256 258 259 261 263 265 267 268 269 271 272 273 274 274 275 276 277 279 280 282 283 283 283 284 285 286 287 287 286 286 286 286 286 286 286 286 286
232 234 236 238 239 238 237 237 237 238 238 239 239 239 239 239 239 240 240 241 241 239 236 237 239 239 234 228 233 240 243 242 242 242 243 244 244 246 246 247 248 250 251 253 253 254 255 256 257 257 258 259 262 263 265 266 267 269 271 272 273 274 274 275 275 276 278 279 280 281 281 282 283 284 286 286 286 285 285 285 285 286 287 286 286 287
231 233 235 237 239 239 239 238 238 239 239 239 240 240 240 241 241 241 241 242 242 240 238 238 239 240 236 230 230 238 243 244 243 242 243 244 245 246 247 248 249 250 251 252 253 254 255 256 257 258 259 260 262 262 263 265 266 268 270 271 272 273 274 274 275 276 276 278 279 280 281 282 282 284 285 285 284 285 285 285 285 286 286 286 287 287
231 233 234 236 239 240 240 240 240 240 240 239 240 240 241 242 243 243 242 243 244 242 240 239 240 240 237 231 230 234 240 245 245 243 243 244 246 247 247 247 248 250 251 252 252 253 255 256 257 258 259 260 261 262 263 265 266 267 269 270 271 272 273 274 275 275 276 277 278 279 280 281 283 284 284 283 283 283 283 284 284 285 286 287 287 288
231 233 234 235 238 241 242 242 242 242 242 241 241 241 241 242 243 244 244 244 244 243 241 239 239 240 237 231 230 233 237 243 245 245 245 244 245 247 248 248 248 250 251 252 253 253 254 256 258 258 259 260 261 263 264 265 266 267 268 269 270 271 272 273 274 275 275 276 277 278 279 281 282 283 283 283 283 283 283 283 283 284 285 286 286 287
230 231 232 234 237 240 241 242 243 243 243 242 241 241 240 241 242 243 244 244 244 243 240 239 239 239 237 233 232 233 235 239 244 247 246 246 246 247 248 248 249 249 250 251 253 254 255 256 257 258 259 260 262 263 264 265 265 266 267 268 269 270 271 272 273 274 274 275 276 277 278 279 280 282 283 284 284 283 283 283 284 284 284 284 284 285
230 230 231 232 234 237 238 240 242 243 243 242 242 241 241 241 242 243 244 245 245 244 242 239 239 240 239 236 234 234 235 237 241 247 248 248 248 248 249 249 249 249 250 251 253 254 255 256 256 257 258 259 261 262 263 264 265 266 266 267 269 270 271 271 272 273 274 275 276 277 277 278 280 281 283 284 284 284 284 285 285 285 284 284 284 284
230 231 231 232 233 235 236 238 240 242 243 242 242 242 242 241 242 243 244 244 245 245 243 241 241 241 240 238 236 236 236 237 239 243 247 250 250 249 250 250 250 250 250 251 252 254 255 256 256 257 258 259 260 261 262 263 264 265 266 267 268 269 270 271 272 273 274 275 276 276 277 278 280 281 282 283 284 284 285 286 285 285 284 284 284 284
229 230 230 231 232 234 235 236 238 241 243 243 243 243 243 242 242 242 243 243 244 245 244 243 243 242 240 238 239 239 238 238 239 240 243 247 250 250 250 250 251 252 251 250 251 252 254 255 256 257 258 258 259 260 261 262 263 264 265 266 268 269 270 271 272 273 273 274 275 276 277 278 279 281 282 282 283 284 285 286 285 284 284 284 284 284
228 229 228 229 230 232 233 234 235 238 241 243 244 243 243 243 243 243 243 244 245 246 245 244 243 243 241 238 239 241 240 239 240 240 241 243 247 249 251 251 251 252 253 252 251 252 253 254 255 256 257 258 259 260 261 262 263 264 265 266 267 268 269 271 271 272 273 274 275 276 277 278 279 280 281 282 283 284 284 284 284 284 284 284 284 285
228 229 228 228 229 231 232 232 234 236 238 241 243 243 243 244 244 245 245 245 245 245 245 245 243 243 242 240 240 242 242 241 240 241 241 242 244 246 250 252 253 253 253 254 253 253 253 253 255 256 257 258 259 261 262 263 264 264 265 266 267 268 269 271 272 272 273 274 275 276 277 278 278 279 281 282 283 283 284 284 284 284 284 285 285 285
228 228 228 228 229 230 232 232 233 234 236 238 240 242 243 244 245 245 245 245 245 245 245 245 244 243 242 242 241 242 242 242 242 241 242 243 244 245 247 250 252 254 254 254 254 254 254 254 254 256 257 258 260 261 261 262 263 264 265 266 267 268 269 270 271 272 273 274 275 276 277 277 278 279 281 282 282 283 284 284 284 284 285 285 285 285
228 228 229 228 229 230 231 232 233 233 234 236 237 239 242 243 245 245 246 246 247 246 246 246 244 242 242 242 241 242 243 243 243 243 243 244 245 245 245 247 249 251 253 255 255 256 256 256 256 256 257 258 259 260 261 262 263 264 264 265 266 268 269 270 271 272 273 274 275 276 277 278 279 280 281 281 282 283 284 284 284 285 285 285 284 284
228 228 228 228 229 229 231 232 233 233 234 235 236 237 239 242 244 246 247 248 249 248 248 247 245 243 241 241 241 242 243 243 243 243 244 244 245 245 246 246 247 249 251 254 256 257 258 259 259 258 258 258 259 259 261 262 263 264 265 266 267 268 269 270 271 272 273 274 275 276 277 278 279 280 281 281 282 283 284 284 285 285 285 284 284 283
227 228 228 228 229 229 230 231 232 233 234 235 236 237 237 239 242 245 247 248 249 249 249 248 247 244 242 242 241 241 242 243 244 244 244 245 245 246 247 247 248 249 250 252 254 256 258 259 260 260 260 260 260 260 261 262 263 264 265 266 267 268 269 270 271 272 273 274 275 276 277 278 279 280 281 281 282 283 284 284 284 284 284 284 283 283
227 227 228 228 228 229 229 230 231 233 234 235 236 237 238 238 240 242 245 247 248 249 250 250 249 247 246 245 243 242 243 244 244 245 245 246 247 247 248 248 249 250 251 252 253 255 256 258 259 260 261 262 262 262 262 262 263 264 265 266 267 267 269 270 271 272 273 274 275 276 277 278 279 280 281 281 282 283 283 284 284 284 284 283 283 283
227 227 227 228 228 228 229 230 231 232 234 235 236 237 238 239 239 239 241 244 246 248 249 251 251 250 249 248 246 244 244 245 245 245 246 246 247 248 249 249 250 251 251 252 253 254 256 257 259 260 261 262 262 263 264 265 265 265 265 266 266 267 268 270 271 272 273 274 275 276 277 278 279 280 280 281 281 282 282 283 283 283 283 283 282 282
227 227 227 228 228 229 229 230 230 232 233 233 234 235 236 238 238 239 240 241 243 246 248 249 251 251 250 251 250 248 247 247 246 246 246 247 247 249 250 251 252 252 253 253 253 254 255 256 257 259 260 261 262 263 264 265 266 266 267 267 268 268 269 270 271 272 273 274 275 276 277 278 279 279 279 280 281 281 281 282 282 282 282 282 282 282
228 228 228 229 229 229 229 230 230 231 232 233 233 234 235 237 238 239 240 241 242 243 245 247 249 250 251 252 252 252 251 251 251 249 249 248 248 249 250 251 252 253 253 254 254 254 255 255 256 257 259 260 261 261 262 263 264 265 266 267 268 269 269 270 270 271 272 273 274 276 276 277 278 278 279 279 280 280 280 281 281 281 281 281 281 280
230 229 229 230 230 230 230 230 231 232 232 233 233 234 235 236 237 239 240 241 242 243 244 245 247 249 250 251 252 253 254 254 255 254 253 252 251 250 250 250 251 252 253 253 253 254 254 255 256 256 257 258 259 260 261 262 263 264 265 266 267 268 269 270 270 271 272 273 274 274 275 276 277 277 278 278 279 279 279 279 279 279 279 279 279 279
232 231 231 231 231 231 231 231 232 233 233 234 234 235 235 235 237 238 239 241 243 244 245 245 246 248 249 249 249 251 254 255 256 257 257 256 255 253 252 251 251 252 253 253 253 254 254 255 256 256 256 257 258 259 260 261 262 263 264 265 266 267 268 269 270 271 272 273 274 274 274 275 276 276 277 277 277 277 277 277 277 277 277 277 277 277
232 232 232 232 233 232 232 232 233 234 234 235 235 235 236 236 237 238 239 241 242 244 246 247 247 247 248 247 247 247 249 252 254 255 257 258 258 258 257 256 255 255 255 255 255 255 255 256 256 257 257 257 258 258 259 260 261 262 263 264 265 266 267 268 269 270 271 273 273 274 274 275 275 276 276 276 276 276 276 276 276 276 276 275 275 275
232 232 232 233 233 233 233 233 234 234 235 235 235 236 236 237 238 238 239 240 241 243 244 245 246 247 247 247 246 245 245 248 251 253 255 257 258 259 260 260 260 260 259 259 258 258 257 257 257 258 258 258 258 258 259 260 261 262 263 263 264 265 266 267 268 269 270 271 272 273 273 274 274 275 274 274 274 274 274 274 274 275 274 274 274 274
233 233 233 233 234 234 233 234 234 235 235 235 236 236 237 238 239 239 239 240 240 241 243 244 245 246 247 247 247 246 245 245 247 250 252 254 255 257 259 260 260 261 262 262 262 262 262 261 261 261 261 260 259 259 259 259 260 261 262 263 263 264 265 266 267 268 269 269 270 271 271 272 273 273 273 273 273 273 273 273 274 274 274 274 274 274
234 234 234 234 235 234 234 235 235 236 236 236 236 237 238 239 239 239 240 240 240 241 243 243 244 245 246 247 248 248 248 246 246 246 248 250 252 253 255 257 259 260 261 262 263 264 265 265 265 266 266 266 265 263 262 261 260 260 261 261 262 263 264 265 266 267 268 269 270 270 271 271 271 271 271 271 271 271 272 272 272 272 273 274 275 275
235 235 235 235 235 235 234 235 236 236 237 237 237 237 238 239 240 240 240 241 241 242 243 244 244 244 245 246 247 247 248 248 247 246 246 248 250 251 253 255 256 258 259 260 261 262 263 264 266 267 268 269 269 269 269 268 267 265 264 264 264 264 265 265 266 268 269 271 273 274 274 273 272 271 270 270 269 270 270 269 269 269 269 270 271 273
236 236 236 236 236 236 235 236 237 237 237 237 237 238 239 239 240 241 241 241 242 242 243 244 244 244 245 246 246 247 247 247 247 247 247 248 250 251 251 252 254 255 257 258 259 260 261 262 263 264 266 268 269 270 271 271 271 271 270 269 269 269 269 269 270 271 272 274 275 275 275 275 274 272 271 269 268 267 267 266 266 265 265 265 266 267
236 237 237 237 237 237 236 237 238 238 238 237 238 238 239 240 241 242 242 242 242 242 243 244 245 246 246 246 247 247 247 247 247 247 248 249 250 251 251 252 252 254 255 256 257 258 260 261 261 262 262 263 265 266 268 270 271 272 272 272 272 272 272 272 273 273 274 275 275 275 275 275 274 273 271 269 268 267 265 265 265 264 264 264 263 264
237 237 237 237 237 237 237 237 238 238 238 238 238 239 240 240 241 242 242 242 241 242 244 245 246 246 247 247 248 248 248 248 248 248 248 249 249 250 251 252 253 253 255 256 257 258 259 260 260 261 261 261 261 261 263 265 266 268 270 271 272 272 273 273 273 274 274 275 275 275 275 275 274 273 271 270 269 267 266 265 265 266 265 264 264 263
237 237 237 237 237 237 238 237 237 238 238 238 238 239 240 240 241 242 243 243 242 242 244 246 247 247 247 248 248 249 249 250 250 250 249 249 249 249 250 251 253 254 255 256 257 258 258 259 259 260 260 260 260 259 260 261 262 264 266 267 269 270 270 271 271 271 272 272 273 274 274 274 274 273 271 270 268 268 266 265 264 265 266 266 265 265
238 238 238 238 238 238 239 239 239 239 239 238 238 239 240 241 242 243 243 244 243 243 244 246 247 248 248 249 249 250 250 251 251 251 250 250 250 250 251 251 252 253 254 255 256 257 257 258 259 259 259 259 259 259 259 259 260 261 262 264 265 266 267 267 268 268 269 269 269 270 271 272 272 272 272 270 269 267 266 265 264 265 267 267 267 266
238 238 239 239 239 239 240 240 240 239 239 238 238 239 240 241 243 244 245 245 245 244 244 246 247 248 249 249 250 250 251 252 252 252 251 252 252 252 252 252 252 252 253 254 254 255 256 257 257 258 258 259 259 259 259 259 259 260 260 261 263 264 264 265 266 267 267 267 268 268 268 268 268 269 269 270 270 268 267 265 264 264 266 267 267 267
240 240 240 240 240 240 241 241 241 241 240 239 239 240 241 242 243 244 245 246 246 245 245 246 247 248 249 250 251 251 251 252 252 252 252 252 252 252 253 253 253 253 253 253 253 254 254 255 256 256 257 258 258 259 259 259 260 260 260 260 261 262 263 264 264 265 266 266 267 266 266 266 265 265 266 266 267 267 267 266 265 264 265 266 267 267
242 242 242 242 242 242 242 242 243 242 241 241 241 241 241 243 244 245 245 246 247 247 247 247 247 248 250 250 251 252 252 252 252 252 252 252 252 252 252 253 253 253 253 253 254 254 254 254 255 256 256 257 257 258 259 259 260 260 261 261 261 261 262 263 263 264 265 266 266 266 265 265 265 265 265 265 264 264 264 264 264 264 265 266 267 267
243 244 244 244 244 244 243 243 244 244 243 242 242 243 243 244 245 246 246 247 248 248 249 249 249 249 250 250 251 251 252 252 252 253 253 253 252 252 252 253 253 253 253 254 254 254 255 255 255 256 256 257 257 258 258 259 259 260 261 261 261 262 262 263 263 264 264 265 265 266 266 265 265 265 265 265 265 265 264 264 263 263 264 266 267 267
244 245 246 246 245 246 246 246 246 246 245 244 244 244 245 245 246 247 247 248 248 249 249 250 250 250 251 251 252 252 252 253 253 253 253 253 253 253 253 253 253 254 254 254 254 255 255 255 255 256 256 257 257 257 258 258 259 259 260 261 262 262 262 263 264 264 265 265 265 265 265 265 265 266 266 265 265 265 265 265 265 265 265 266 266 266
244 246 247 248 248 248 248 248 248 248 248 247 246 245 246 246 246 247 247 248 248 249 250 250 250 250 250 251 252 253 253 253 254 255 255 255 256 255 255 255 255 255 255 255 255 255 255 255 255 255 256 256 257 257 258 258 259 259 259 260 261 262 263 263 264 265 265 265 265 265 265 265 265 265 266 266 266 266 266 266 266 267 267 267 268 268
245 246 247 248 249 249 249 250 250 250 249 249 248 247 247 247 247 248 248 248 248 249 249 250 250 250 250 251 252 253 254 254 255 256 256 257 257 257 257 257 256 256 255 255 256 256 256 256 256 256 256 257 257 258 258 259 259 259 260 260 261 262 262 263 264 264 265 265 265 265 265 265 265 265 266 266 266 267 267 267 268 268 269 269 269 270
243 245 246 248 249 250 250 250 250 250 250 250 249 248 248 248 248 249 249 249 248 248 249 250 251 251 252 253 253 254 254 255 255 256 257 257 258 258 258 258 258 257 257 256 256 256 256 257 257 257 257 257 257 258 258 259 259 260 260 260 260 261 262 262 263 263 264 264 265 265 265 265 266 266 266 266 267 267 267 268 268 269 269 269 270 270
242 244 246 247 248 249 249 249 249 250 250 250 249 249 248 248 249 249 249 249 249 249 250 251 252 253 253 254 254 255 256 256 256 256 257 257 258 258 259 259 259 259 258 258 257 257 257 257 257 257 257 257 257 257 258 258 259 259 260 260 260 260 260 261 261 262 262 263 263 264 265 265 266 266 266 267 267 267 267 268 268 268 268 269 269 270
242 243 245 246 246 247 247 248 248 248 249 250 250 249 248 248 249 249 250 250 251 251 251 251 252 253 253 253 254 254 255 256 256 256 256 257 257 258 258 259 259 259 259 258 258 258 257 257 257 258 258 257 257 257 257 258 258 259 259 259 259 259 259 259 259 260 260 261 262 263 264 265 266 266 266 266 267 267 267 268 268 268 268 268 269 270
243 243 244 245 245 246 247 247 248 248 249 250 251 251 250 250 250 250 251 252 252 252 251 251 251 252 252 253 253 254 254 255 255 256 255 256 256 256 257 257 258 258 259 259 259 259 259 258 258 258 258 258 258 258 257 257 257 257 258 258 259 259 259 258 258 258 259 259 260 261 262 263 264 265 265 266 266 267 267 267 267 267 268 268 269 269
Height
10702 10710 10718 10730 10742 10748 10753 10753 10757 10766 10770 10770 10773 10777 10783 10787 10790 10794 10795 10797 10801 10808 10816 10819 10824 10825 10819 10821 10829 10835 10842 10847 10848 10848 10846 10845 10846 10847 10848 10850 10851 10854 10856 10859 10860 10860 10861 10862 10863 10865 10865 10865 10866 10867 10868 10868 10868 10869 10869 10869 10869 10871 10870 10869 10870 10870 10869 10869 10870 10869 10868 10868 10868 10867 10867 10867 10867 10867 10866 10866 10865 10864 10862 10860 10859 10857
10691 10702 10714 10725 10731 10736 10740 10740 10746 10755 10758 10761 10765 10770 10776 10781 10785 10788 10789 10792 10795 10801 10811 10813 10817 10822 10818 10816 10823 10831 10839 10843 10841 10841 10840 10840 10843 10844 10843 10843 10845 10849 10851 10854 10855 10856 10857 10858 10859 10860 10860 10861 10862 10862 10863 10863 10863 10864 10864 10864 10865 10866 10865 10864 10864 10864 10864 10864 10865 10864 10863 10863 10863 10863 10863 10862 10862 10862 10862 10862 10861 10859 10857 10856 10854 10853
10679 10696 10709 10716 10722 10727 10730 10733 10738 10745 10750 10755 10760 10765 10771 10777 10781 10782 10783 10785 10788 10794 10803 10806 10811 10818 10816 10813 10818 10826 10834 10836 10833 10833 10834 10836 10841 10841 10838 10837 10840 10844 10845 10848 10849 10851 10853 10854 10856 10856 10856 10856 10857 10857 10858 10858 10859 10859 10859 10859 10860 10861 10860 10859 10858 10858 10859 10860 10860 10859 10858 10858 10858 10857 10858 10858 10857 10857 10857 10856 10855 10854 10852 10851 10849 10848
10673 10693 10704 10708 10714 10719 10722 10725 10729 10736 10744 10749 10754 10760 10766 10771 10774 10776 10776 10777 10780 10786 10794 10799 10804 10812 10814 10811 10812 10818 10825 10826 10827 10829 10830 10833 10836 10836 10834 10834 10836 10837 10838 10842 10844 10846 10849 10850 10851 10851 10851 10851 10851 10852 10852 10853 10854 10854 10854 10854 10855 10855 10854 10854 10854 10854 10854 10855 10854 10854 10853 10853 10853 10852 10852 10852 10852 10852 10852 10851 10850 10848 10846 10845 10844 10843
10668 10684 10692 10698 10703 10707 10711 10715 10720 10728 10736 10742 10748 10753 10758 10764 10766 10766 10768 10769 10771 10777 10785 10790 10795 10805 10809 10808 10807 10808 10815 10821 10823 10826 10828 10828 10829 10830 10831 10831 10829 10829 10831 10836 10838 10840 10843 10845 10845 10846 10846 10846 10846 10846 10847 10848 10849 10848 10848 10849 10849 10849 10849 10849 10850 10850 10850 10849 10849 10849 10848 10848 10848 10847 10847 10846 10847 10848 10847 10845 10844 10842 10841 10840 10839 10838
10657 10666 10678 10688 10692 10697 10702 10706 10712 10720 10726 10733 10741 10745 10748 10753 10755 10756 10759 10761 10762 10767 10776 10780 10786 10799 10805 10804 10804 10801 10808 10818 10819 10822 10824 10822 10823 10824 10825 10824 10823 10823 10825 10828 10830 10833 10837 10839 10839 10839 10839 10840 10840 10840 10841 10843 10842 10842 10843 10844 10845 10845 10844 10844 10844 10845 10844 10843 10843 10843 10843 10842 10842 10841 10841 10841 10842 10843 10841 10840 10839 10837 10835 10834 10833 10833
10646 10651 10663 10676 10683 10689 10694 10698 10704 10712 10717 10725 10736 10738 10737 10742 10746 10747 10751 10752 10753 10759 10766 10768 10775 10793 10799 10799 10801 10797 10801 10812 10814 10816 10818 10816 10816 10818 10818 10817 10817 10818 10818 10820 10823 10825 10829 10832 10832 10832 10832 10833 10833 10833 10835 10836 10836 10837 10838 10840 10840 10840 10839 10838 10839 10840 10839 10838 10838 10837 10837 10836 10836 10835 10835 10837 10838 10837 10835 10834 10833 10831 10830 10829 10828 10827
10638 10641 10649 10664 10675 10679 10684 10692 10698 10704 10709 10718 10729 10728 10727 10735 10737 10739 10741 10740 10743 10748 10753 10759 10767 10784 10796 10797 10797 10795 10795 10804 10809 10810 10811 10810 10810 10811 10812 10811 10810 10810 10811 10814 10817 10819 10822 10824 10825 10825 10825 10826 10826 10826 10828 10829 10830 10832 10833 10834 10835 10834 10834 10833 10834 10834 10834 10833 10832 10832 10831 10830 10829 10829 10830 10831 10832 10831 10830 10828 10827 10826 10825 10824 10823 10821
10635 10635 10640 10653 10663 10668 10678 10687 10691 10695 10699 10708 10717 10716 10719 10725 10725 10727 10728 10727 10732 10735 10744 10758 10764 10775 10793 10797 10791 10789 10791 10797 10802 10803 10803 10803 10802 10803 10804 10804 10802 10802 10804 10807 10810 10811 10814 10816 10818 10819 10818 10818 10818 10819 10822 10824 10825 10826 10827 10828 10829 10829 10828 10829 10829 10829 10828 10828 10828 10827 10825 10823 10822 10822 10824 10826 10826 10824 10823 10822 10821 10820 10819 10819 10817 10815
10622 10623 10626 10633 10643 10655 10667 10674 10678 10682 10687 10696 10702 10705 10710 10712 10714 10716 10715 10717 10720 10723 10741 10759 10759 10764 10783 10792 10785 10783 10787 10792 10795 10795 10795 10795 10794 10794 10796 10796 10796 10796 10798 10801 10803 10803 10805 10807 10810 10812 10812 10811 10812 10814 10816 10817 10818 10819 10820 10821 10822 10822 10822 10823 10824 10824 10823 10823 10823 10821 10819 10818 10817 10817 10818 10819 10819 10818 10817 10816 10814 10814 10814 10813 10812 10810
10608 10610 10610 10617 10631 10645 10654 10660 10668 10673 10677 10685 10690 10696 10701 10701 10705 10705 10704 10708 10704 10712 10741 10757 10751 10751 10767 10783 10786 10782 10783 10785 10787 10788 10787 10786 10786 10786 10788 10790 10790 10790 10791 10794 10796 10796 10796 10798 10801 10804 10806 10806 10807 10809 10810 10810 10811 10813 10814 10814 10815 10815 10815 10816 10817 10818 10818 10817 10817 10815 10813 10812 10811 10811 10812 10813 10811 10811 10811 10810 10808 10808 10807 10807 10805 10804
10599 10602 10608 10617 10625 10633 10642 10651 10661 10664 10669 10676 10680 10688 10693 10692 10695 10694 10695 10697 10692 10711 10744 10751 10742 10738 10752 10779 10788 10782 10779 10775 10776 10779 10778 10779 10780 10780 10782 10783 10782 10784 10786 10786 10787 10788 10789 10791 10792 10796 10800 10801 10800 10801 10802 10803 10805 10807 10807 10807 10808 10807 10807 10809 10810 10811 10811 10811 10811 10809 10807 10807 10805 10806 10807 10806 10805 10804 10804 10803 10803 10802 10801 10800 10799 10797
10597 10601 10611 10615 10613 10621 10634 10643 10649 10652 10659 10667 10671 10679 10684 10684 10684 10682 10687 10688 10689 10713 10738 10740 10730 10723 10742 10776 10783 10778 10775 10765 10764 10769 10771 10774 10774 10772 10773 10774 10775 10777 10778 10778 10779 10780 10781 10782 10785 10790 10793 10792 10792 10793 10795 10797 10798 10800 10800 10800 10800 10799 10799 10802 10803 10803 10804 10804 10804 10803 10802 10801 10799 10800 10800 10799 10798 10797 10797 10796 10796 10796 10795 10794 10793 10791
10596 10600 10606 10608 10609 10617 10628 10635 10641 10646 10653 10660 10665 10672 10675 10676 10674 10673 10678 10679 10683 10704 10721 10725 10714 10705 10733 10768 10773 10771 10768 10757 10755 10759 10762 10766 10765 10762 10761 10764 10767 10769 10769 10769 10770 10773 10775 10776 10779 10783 10784 10784 10785 10786 10788 10789 10790 10791 10792 10792 10792 10791 10791 10794 10795 10795 10796 10797 10796 10796 10797 10795 10794 10793 10793 10792 10791 10790 10790 10790 10790 10789 10789 10788 10787 10785
10586 10588 10595 10606 10610 10614 10622 10630 10632 10634 10640 10646 10651 10654 10656 10662 10662 10660 10663 10664 10671 10687 10702 10706 10694 10695 10732 10761 10762 10760 10757 10754 10752 10748 10751 10756 10754 10752 10752 10754 10757 10758 10759 10762 10763 10766 10768 10770 10772 10774 10775 10776 10778 10778 10779 10781 10782 10783 10783 10784 10784 10783 10783 10786 10787 10788 10788 10788 10789 10790 10790 10788 10787 10787 10787 10786 10784 10782 10782 10783 10783 10783 10782 10782 10780 10779
10578 10579 10592 10604 10603 10604 10612 10617 10615 10615 10621 10628 10632 10634 10642 10654 10655 10651 10652 10655 10660 10669 10683 10690 10684 10697 10731 10747 10747 10749 10750 10754 10750 10740 10741 10744 10743 10744 10744 10744 10746 10748 10752 10756 10757 10759 10759 10760 10763 10765 10767 10768 10770 10770 10771 10772 10773 10774 10774 10775 10776 10775 10774 10777 10779 10779 10780 10781 10781 10782 10781 10780 10781 10781 10781 10780 10778 10776 10775 10775 10776 10775 10774 10774 10773 10773
10570 10576 10590 10596 10593 10597 10602 10601 10601 10601 10604 10611 10615 10622 10635 10644 10642 10638 10639 10643 10645 10651 10666 10678 10682 10698 10720 10733 10740 10744 10744 10747 10742 10736 10734 10732 10732 10735 10735 10733 10734 10738 10745 10748 10749 10749 10749 10751 10753 10756 10758 10759 10761 10762 10761 10762 10764 10766 10767 10767 10767 10766 10766 10768 10770 10771 10773 10773 10773 10773 10773 10773 10774 10774 10774 10774 10772 10770 10770 10769 10768 10767 10765 10765 10765 10765
10559 10566 10578 10582 10583 10588 10587 10585 10590 10590 10591 10597 10604 10615 10622 10621 10622 10625 10626 10629 10631 10638 10654 10669 10679 10691 10706 10725 10736 10733 10732 10735 10731 10729 10729 10723 10721 10723 10724 10725 10723 10726 10733 10737 10740 10740 10740 10742 10744 10746 10748 10749 10751 10751 10752 10753 10755 10758 10759 10759 10759 10758 10758 10759 10761 10763 10764 10765 10765 10765 10766 10766 10767 10767 10767 10766 10766 10765 10765 10764 10761 10759 10757 10756 10756 10757
10546 10550 10560 10567 10569 10570 10568 10570 10577 10580 10581 10586 10594 10602 10602 10601 10609 10615 10616 10621 10626 10630 10642 10658 10670 10677 10691 10718 10726 10715 10716 10721 10717 10720 10722 10716 10713 10712 10714 10716 10715 10717 10721 10724 10728 10731 10732 10733 10735 10737 10739 10740 10741 10742 10744 10745 10746 10748 10749 10750 10750 10749 10750 10751 10753 10755 10755 10756 10757 10757 10758 10758 10759 10759 10758 10758 10758 10758 10759 10756 10754 10752 10750 10748 10748 10748
10534 10538 10546 10555 10556 10553 10552 10556 10566 10572 10574 10576 10580 10583 10585 10590 10598 10602 10605 10612 10616 10617 10626 10641 10654 10664 10684 10709 10710 10699 10702 10705 10706 10711 10711 10706 10707 10708 10708 10708 10707 10709 10710 10711 10714 10718 10722 10724 10726 10729 10730 10731 10733 10734 10735 10735 10735 10738 10739 10740 10741 10741 10742 10743 10743 10745 10746 10747 10749 10749 10749 10750 10750 10750 10750 10750 10750 10750 10750 10748 10746 10745 10743 10742 10742 10740
10519 10522 10530 10539 10540 10537 10539 10548 10559 10564 10563 10566 10569 10570 10573 10578 10582 10585 10589 10593 10599 10603 10611 10623 10638 10657 10681 10693 10690 10687 10690 10693 10695 10700 10700 10698 10700 10704 10705 10702 10697 10697 10697 10698 10701 10705 10710 10714 10717 10720 10722 10722 10724 10725 10725 10724 10725 10727 10729 10729 10731 10733 10734 10734 10734 10736 10737 10738 10740 10740 10740 10740 10741 10742 10742 10742 10741 10741 10741 10739 10738 10737 10736 10736 10735 10732
10505 10509 10516 10524 10526 10527 10533 10541 10548 10549 10547 10553 10559 10561 10563 10563 10564 10569 10572 10578 10586 10592 10599 10608 10622 10650 10673 10674 10674 10678 10678 10680 10684 10687 10690 10690 10690 10693 10694 10691 10688 10686 10686 10687 10690 10694 10698 10702 10706 10709 10712 10713 10714 10713 10712 10714 10716 10717 10719 10721 10723 10724 10724 10724 10725 10727 10728 10729 10730 10731 10731 10732 10733 10733 10733 10733 10733 10732 10731 10730 10729 10729 10729 10728 10726 10724
10490 10494 10499 10506 10512 10517 10523 10527 10529 10530 10534 10540 10546 10552 10556 10553 10553 10560 10567 10574 10577 10577 10586 10591 10601 10635 10660 10657 10660 10667 10662 10665 10672 10674 10678 10678 10677 10679 10679 10679 10679 10681 10683 10683 10684 10687 10688 10689 10692 10695 10699 10702 10702 10702 10702 10705 10708 10709 10710 10712 10714 10715 10715 10715 10717 10717 10719 10720 10721 10721 10722 10723 10724 10724 10724 10724 10723 10723 10722 10721 10720 10720 10720 10719 10717 10716
10471 10476 10481 10489 10498 10504 10508 10512 10514 10516 10522 10528 10535 10544 10550 10551 10553 10555 10558 10561 10559 10558 10568 10571 10579 10618 10645 10640 10646 10654 10650 10653 10661 10663 10666 10666 10665 10667 10667 10669 10672 10676 10681 10681 10680 10681 10678 10677 10678 10680 10684 10687 10689 10693 10694 10697 10699 10700 10702 10703 10705 10706 10705 10706 10708 10709 10710 10711 10711 10712 10713 10714 10714 10714 10715 10714 10713 10713 10712 10711 10711 10710 10710 10709 10707 10706
10456 10461 10467 10473 10480 10486 10490 10495 10500 10505 10512 10520 10529 10535 10540 10545 10547 10546 10545 10545 10542 10544 10554 10554 10562 10602 10626 10620 10628 10644 10644 10645 10650 10652 10655 10656 10655 10657 10658 10661 10665 10669 10674 10675 10675 10674 10670 10666 10666 10667 10671 10674 10676 10680 10683 10687 10690 10692 10692 10693 10694 10695 10695 10697 10699 10700 10701 10702 10702 10703 10704 10704 10704 10705 10705 10704 10704 10703 10702 10701 10701 10700 10699 10698 10697 10696
10436 10441 10450 10454 10458 10466 10476 10486 10496 10502 10506 10512 10520 10524 10527 10531 10532 10533 10534 10532 10529 10534 10542 10541 10550 10581 10601 10601 10615 10635 10636 10633 10637 10639 10643 10646 10646 10647 10650 10653 10657 10662 10666 10667 10667 10665 10661 10658 10657 10657 10661 10664 10665 10668 10671 10674 10677 10679 10681 10682 10683 10685 10686 10688 10690 10691 10692 10692 10693 10694 10694 10694 10695 10695 10695 10694 10693 10692 10691 10690 10690 10689 10688 10686 10686 10686
10420 10427 10436 10439 10444 10457 10470 10481 10487 10487 10486 10491 10501 10506 10507 10509 10512 10515 10517 10518 10522 10526 10527 10531 10539 10558 10581 10592 10604 10617 10617 10615 10621 10626 10631 10636 10638 10640 10644 10647 10650 10653 10655 10656 10656 10653 10651 10648 10647 10648 10651 10654 10655 10657 10660 10662 10663 10665 10667 10668 10670 10673 10676 10678 10681 10682 10683 10684 10684 10684 10684 10683 10684 10684 10683 10683 10682 10681 10680 10679 10678 10678 10677 10675 10675 10675
10408 10416 10425 10431 10439 10451 10462 10468 10469 10467 10468 10474 10485 10491 10492 10495 10499 10501 10502 10509 10519 10517 10515 10527 10532 10540 10569 10590 10591 10595 10599 10597 10602 10611 10618 10626 10630 10634 10637 10637 10639 10640 10639 10640 10640 10638 10636 10635 10636 10640 10643 10643 10644 10646 10649 10650 10651 10653 10655 10656 10657 10660 10663 10667 10670 10673 10674 10675 10675 10674 10673 10672 10672 10672 10671 10671 10670 10669 10668 10668 10667 10666 10665 10665 10664 10664
10399 10409 10421 10426 10430 10441 10450 10454 10453 10453 10457 10462 10471 10480 10484 10486 10487 10489 10494 10500 10506 10504 10509 10523 10525 10529 10560 10584 10582 10581 10583 10580 10586 10595 10601 10610 10615 10618 10621 10622 10623 10623 10622 10622 10621 10620 10620 10622 10627 10631 10632 10633 10633 10634 10636 10638 10640 10643 10645 10646 10648 10649 10651 10653 10657 10661 10663 10665 10664 10663 10662 10662 10661 10661 10660 10659 10658 10657 10657 10656 10655 10654 10654 10653 10653 10652
10392 10403 10414 10416 10419 10430 10439 10441 10441 10443 10447 10452 10460 10468 10473 10475 10475 10478 10485 10492 10496 10497 10504 10517 10521 10527 10548 10567 10574 10577 10571 10566 10574 10580 10581 10587 10591 10593 10599 10605 10607 10608 10606 10604 10603 10604 10608 10612 10615 10617 10620 10622 10623 10623 10625 10627 10628 10631 10634 10636 10638 10640 10641 10643 10646 10649 10651 10652 10651 10650 10651 10651 10650 10650 10648 10647 10646 10645 10645 10645 10644 10644 10643 10642 10641 10640
10380 10393 10404 10406 10409 10419 10429 10433 10434 10435 10437 10442 10449 10454 10458 10461 10465 10471 10481 10491 10494 10495 10500 10507 10510 10517 10530 10543 10558 10569 10563 10555 10562 10570 10569 10567 10566 10569 10577 10584 10589 10590 10588 10587 10589 10592 10596 10600 10602 10603 10605 10609 10611 10613 10615 10616 10617 10620 10623 10624 10625 10627 10630 10634 10638 10639 10639 10639 10637 10637 10638 10638 10637 10637 10636 10635 10634 10633 10633 10633 10633 10633 10632 10631 10630 10629
10369 10380 10391 10394 10395 10407 10421 10424 10423 10424 10423 10423 10429 10439 10446 10452 10461 10470 10479 10485 10486 10484 10486 10487 10487 10499 10514 10519 10528 10546 10556 10554 10557 10565 10562 10552 10550 10554 10558 10563 10566 10566 10565 10568 10572 10576 10581 10584 10586 10587 10590 10594 10599 10602 10604 10604 10605 10608 10611 10611 10611 10614 10618 10623 10627 10628 10629 10627 10626 10625 10625 10624 10624 10623 10622 10622 10621 10621 10621 10621 10621 10621 10620 10619 10619 10618
10361 10370 10379 10381 10381 10396 10411 10410 10408 10407 10398 10400 10420 10439 10447 10452 10457 10461 10463 10467 10469 10467 10466 10468 10476 10489 10497 10496 10501 10523 10546 10554 10554 10557 10550 10539 10538 10542 10543 10547 10549 10546 10545 10549 10552 10557 10560 10563 10566 10569 10573 10579 10584 10588 10590 10592 10594 10595 10596 10596 10598 10602 10606 10610 10614 10615 10616 10615 10614 10614 10613 10612 10611 10610 10609 10609 10608 10609 10609 10609 10608 10608 10607 10607 10607 10607
10355 10361 10369 10369 10370 10386 10400 10398 10391 10383 10378 10399 10432 10444 10441 10440 10440 10440 10443 10450 10456 10456 10455 10460 10471 10477 10478 10481 10489 10505 10526 10537 10542 10546 10538 10522 10522 10530 10534 10535 10534 10531 10533 10537 10540 10541 10541 10544 10548 10551 10554 10559 10564 10567 10569 10572 10576 10579 10580 10583 10586 10590 10594 10597 10600 10601 10600 10599 10599 10600 10599 10599 10599 10598 10597 10597 10597 10597 10598 10597 10597 10596 10595 10596 10596 10596
10346 10351 10355 10356 10360 10374 10386 10380 10367 10364 10381 10412 10430 10427 10421 10421 10422 10424 10432 10441 10446 10447 10446 10447 10452 10457 10459 10465 10475 10487 10501 10512 10519 10524 10519 10508 10512 10524 10526 10523 10522 10521 10522 10525 10528 10528 10528 10532 10537 10540 10541 10542 10543 10544 10545 10546 10550 10556 10562 10567 10572 10576 10579 10581 10583 10583 10582 10581 10581 10582 10582 10583 10584 10585 10585 10586 10586 10586 10586 10585 10585 10585 10585 10585 10586 10585
10335 10337 10341 10345 10350 10360 10369 10364 10354 10363 10388 10404 10405 10408 10412 10413 10415 10416 10419 10428 10434 10431 10427 10425 10429 10439 10445 10452 10463 10473 10482 10488 10491 10498 10505 10509 10513 10513 10510 10511 10514 10510 10507 10511 10514 10517 10519 10523 10528 10533 10534 10531 10528 10527 10526 10525 10528 10534 10542 10549 10554 10558 10560 10561 10563 10565 10564 10564 10565 10565 10565 10566 10568 10571 10572 10572 10574 10575 10574 10573 10573 10573 10573 10574 10575 10575
10324 10327 10330 10334 10338 10348 10355 10354 10350 10358 10375 10385 10392 10405 10409 10403 10403 10401 10396 10406 10416 10413 10410 10413 10420 10429 10437 10442 10450 10457 10461 10462 10465 10482 10504 10509 10500 10492 10492 10499 10502 10496 10494 10499 10502 10505 10509 10512 10516 10523 10527 10525 10520 10515 10512 10511 10513 10518 10524 10530 10535 10538 10541 10544 10547 10547 10546 10548 10550 10549 10549 10551 10553 10556 10558 10559 10561 10561 10560 10560 10560 10559 10560 10561 10561 10562
10313 10315 10318 10319 10324 10331 10336 10337 10338 10342 10358 10378 10390 10398 10394 10383 10383 10380 10371 10380 10400 10405 10404 10407 10411 10417 10422 10426 10432 10438 10440 10437 10444 10475 10499 10492 10476 10474 10478 10482 10485 10485 10487 10490 10491 10494 10497 10500 10504 10509 10512 10514 10511 10505 10501 10502 10503 10506 10512 10516 10519 10522 10525 10529 10532 10531 10531 10532 10533 10531 10534 10538 10540 10542 10544 10546 10548 10547 10546 10548 10548 10547 10547 10548 10548 10548
10300 10302 10304 10304 10308 10315 10318 10322 10327 10332 10349 10373 10382 10381 10372 10364 10366 10361 10346 10356 10391 10408 10402 10396 10397 10401 10405 10409 10414 10419 10419 10419 10437 10467 10476 10459 10453 10461 10465 10467 10473 10476 10478 10479 10479 10481 10483 10486 10490 10493 10494 10495 10493 10490 10489 10491 10494 10498 10502 10504 10505 10509 10513 10516 10516 10516 10518 10520 10519 10519 10522 10525 10527 10528 10530 10533 10535 10534 10533 10534 10535 10535 10535 10534 10534 10534
10287 10289 10290 10291 10298 10306 10306 10308 10317 10326 10343 10363 10368 10363 10355 10349 10348 10338 10328 10350 10390 10402 10392 10385 10383 10385 10388 10393 10399 10404 10405 10411 10428 10444 10441 10431 10438 10449 10450 10454 10463 10464 10463 10466 10466 10466 10468 10470 10472 10474 10474 10474 10473 10472 10473 10476 10481 10487 10490 10492 10492 10495 10499 10500 10499 10501 10505 10508 10510 10512 10513 10514 10515 10516 10516 10518 10521 10522 10520 10521 10523 10522 10522 10521 10521 10521
10275 10277 10279 10282 10289 10295 10294 10296 10304 10315 10333 10350 10353 10347 10340 10335 10329 10322 10326 10352 10373 10377 10378 10377 10369 10367 10374 10380 10385 10390 10394 10398 10408 10416 10417 10417 10425 10431 10431 10437 10446 10447 10448 10450 10450 10451 10454 10455 10455 10456 10455 10453 10453 10454 10455 10459 10465 10471 10475 10479 10480 10480 10481 10482 10484 10487 10491 10495 10499 10502 10504 10504 10504 10504 10504 10505 10507 10508 10509 10510 10510 10510 10509 10509 10508 10509
10268 10269 10269 10273 10279 10283 10285 10285 10288 10302 10326 10339 10335 10330 10326 10319 10315 10317 10325 10337 10346 10355 10367 10367 10356 10356 10364 10368 10371 10376 10380 10383 10388 10395 10399 10402 10406 10411 10412 10417 10425 10429 10429 10431 10433 10435 10438 10439 10439 10439 10438 10436 10435 10436 10438 10443 10448 10454 10459 10463 10465 10465 10465 10467 10470 10473 10476 10481 10486 10488 10489 10490 10491 10491 10492 10493 10495 10496 10497 10497 10497 10497 10496 10496 10496 10497
10257 10256 10260 10267 10271 10271 10273 10273 10277 10295 10318 10321 10312 10313 10314 10308 10306 10311 10317 10322 10332 10342 10349 10349 10348 10350 10352 10354 10357 10359 10362 10366 10370 10373 10377 10381 10386 10392 10395 10399 10404 10407 10408 10411 10414 10417 10421 10424 10423 10423 10423 10421 10420 10421 10424 10428 10432 10435 10439 10444 10448 10449 10451 10453 10455 10459 10463 10467 10470 10472 10474 10475 10475 10475 10477 10479 10481 10483 10484 10485 10485 10484 10482 10481 10482 10483
10249 10250 10254 10260 10260 10257 10258 10265 10273 10288 10300 10299 10296 10301 10303 10299 10299 10303 10307 10314 10321 10325 10328 10333 10337 10337 10336 10338 10339 10341 10344 10347 10350 10354 10357 10360 10366 10373 10377 10381 10384 10386 10390 10394 10397 10399 10404 10408 10409 10409 10408 10407 10405 10407 10410 10414 10418 10420 10421 10424 10428 10432 10436 10438 10439 10444 10449 10453 10455 10456 10458 10459 10459 10460 10462 10464 10466 10467 10468 10470 10470 10470 10470 10469 10468 10469
10245 10245 10243 10245 10246 10247 10251 10261 10270 10275 10280 10285 10288 10289 10288 10288 10289 10291 10295 10301 10307 10310 10313 10317 10318 10318 10320 10321 10321 10323 10326 10328 10331 10336 10339 10341 10346 10353 10359 10363 10367 10371 10375 10378 10380 10383 10387 10391 10394 10394 10393 10391 10390 10392 10394 10398 10403 10407 10408 10408 10411 10415 10420 10423 10424 10428 10433 10436 10439 10441 10442 10443 10444 10444 10446 10448 10451 10452 10452 10453 10454 10455 10456 10455 10454 10455
10237 10236 10233 10235 10237 10240 10247 10255 10261 10263 10265 10268 10271 10272 10273 10274 10275 10277 10281 10287 10294 10296 10295 10296 10298 10300 10302 10303 10305 10306 10308 10313 10318 10321 10323 10325 10329 10334 10341 10347 10351 10355 10359 10361 10364 10367 10369 10372 10375 10376 10377 10376 10375 10376 10379 10381 10386 10392 10395 10396 10396 10399 10403 10408 10410 10412 10414 10417 10420 10422 10424 10426 10429 10429 10429 10431 10434 10436 10437 10437 10438 10440 10440 10440 10439 10439
10228 10227 10227 10228 10229 10233 10242 10249 10249 10248 10250 10251 10254 10258 10259 10258 10259 10263 10267 10273 10279 10280 10277 10277 10280 10282 10285 10289 10292 10294 10297 10302 10306 10308 10309 10311 10313 10316 10321 10327 10331 10337 10342 10345 10348 10349 10349 10352 10355 10358 10361 10362 10361 10363 10365 10366 10370 10376 10381 10384 10384 10385 10388 10392 10395 10398 10398 10398 10400 10402 10404 10408 10410 10412 10414 10415 10417 10420 10421 10422 10423 10425 10425 10425 10424 10422
10219 10217 10219 10221 10223 10227 10234 10238 10235 10234 10236 10237 10238 10242 10243 10242 10245 10250 10253 10257 10262 10262 10261 10263 10266 10270 10275 10280 10281 10284 10288 10291 10293 10295 10296 10297 10298 10299 10302 10307 10312 10318 10322 10326 10329 10330 10330 10332 10336 10340 10344 10346 10347 10349 10351 10351 10354 10359 10364 10369 10370 10371 10374 10376 10379 10382 10383 10382 10382 10383 10386 10390 10392 10394 10397 10399 10402 10404 10406 10407 10408 10409 10410 10410 10409 10407
10209 10209 10212 10214 10216 10218 10222 10223 10222 10222 10223 10222 10222 10225 10227 10229 10233 10236 10237 10240 10243 10247 10251 10256 10259 10262 10265 10267 10269 10273 10274 10276 10280 10284 10284 10284 10285 10284 10285 10290 10295 10298 10301 10305 10308 10310 10312 10314 10317 10321 10325 10328 10330 10333 10335 10337 10339 10341 10346 10350 10353 10356 10359 10361 10362 10364 10366 10366 10367 10367 10369 10373 10376 10378 10380 10382 10385 10388 10391 10392 10393 10394 10396 10395 10394 10394
10200 10203 10204 10202 10204 10206 10208 10208 10208 10209 10209 10208 10207 10210 10214 10217 10221 10224 10224 10225 10231 10238 10244 10248 10250 10249 10250 10253 10257 10260 10261 10262 10266 10269 10271 10272 10271 10270 10271 10275 10277 10279 10282 10285 10288 10291 10295 10297 10300 10304 10307 10310 10313 10317 10319 10321 10323 10326 10329 10332 10335 10338 10341 10344 10346 10347 10348 10350 10353 10354 10355 10357 10359 10361 10363 10366 10369 10372 10375 10377 10378 10378 10380 10381 10381 10381
10189 10191 10189 10188 10190 10193 10194 10195 10197 10198 10200 10198 10197 10199 10203 10206 10210 10213 10214 10216 10221 10226 10231 10235 10236 10236 10237 10241 10245 10247 10249 10250 10250 10253 10257 10257 10256 10257 10259 10260 10262 10264 10265 10266 10270 10274 10276 10279 10283 10287 10290 10292 10296 10299 10302 10304 10307 10310 10313 10315 10317 10319 10321 10325 10328 10330 10331 10334 10337 10339 10341 10343 10343 10344 10345 10349 10352 10356 10359 10361 10362 10362 10364 10366 10367 10368